Location: Kikino
(54.4440°N, 112.0940°W)
Time: 18:21:10
(UTC+00:00)

A-11 Canister half - Pass Details

Date: 19 May 2024
Orbit: 1525 x 1683 km, 47.3° (Epoch: 12 June)

Event Time Altitude Azimuth Distance (km) Brightness Sun altitude
Rises 04:02:47 0° 188° (S) 4,684 11.2 -4.1°
Reaches altitude 10° 04:06:58 10° 171° (S) 3,724 10.6 -4.5°
Maximum altitude 04:12:54 19° 131° (SE) 3,113 10.0 -5.1°
Drops below altitude 10° 04:18:57 10° 92° (E) 3,808 10.7 -5.7°
Sets 04:23:16 0° 76° (ENE) 4,826 11.3 -6.2°
